Regional Weather Roundup
Issued by NWS

Home | Current Version | Previous Version | Text Only | Print | Product List | Glossary Off
Versions: 1 2 3 4 5 6 7 8 9 10 11 12 13 14 15 16 17 18 19 20 21 22 23 24 25 26 27 28 29 30 31 32 33 34 35 36 37 38 39 40 41 42 43 44 45 46 47 48 49 50

000
ASUS45 KSLC 021510
RWRUT

UTAH REGIONAL WEATHER ROUNDUP
NATIONAL WEATHER SERVICE SALT LAKE CITY UT
900 AM MDT MON MAY 02 2016

UTZ001>011-023>025-021600-

NORTHERN UTAH

CITY           SKY/WX    TMP DP  RH WIND       PRES   REMARKS
BRIGHAM CITY   SUNNY     51  25  36 N6        30.23R
HILL AFB       SUNNY     49  27  42 E12G24    30.21R
LOGAN          SUNNY     48  28  46 N3        30.25R
OGDEN          SUNNY     53  27  36 NE12      30.21R
PROVO AIRPORT  MOSUNNY   52  30  43 VRB5      30.21S
SALT LAKE CITY MOSUNNY   55  30  38 CALM      30.21R
VERNAL         SUNNY     46  26  45 E7        30.27R
WENDOVER       SUNNY     48  32  53 S6        30.22R
HEBER CITY     PTSUNNY   41  28  60 CALM      30.27R

$$

UTZ012>022-026-027-021600-

SOUTHERN/CENTRAL UTAH

CITY           SKY/WX    TMP DP  RH WIND       PRES   REMARKS
BLANDING       MOSUNNY   42  35  76 SE5       30.35R
BRYCE CANYON   MOSUNNY   38  33  82 NE5       30.27R WCI  34
CEDAR CITY     MOSUNNY   51  38  60 CALM      30.20R
DELTA          CLOUDY    48  36  61 SW3       30.21R
HANKSVILLE     CLOUDY    52  39  62 CALM      30.25R
MILFORD        CLOUDY    52  36  54 N6        30.20R
MOAB/CYNLANDS  CLOUDY    53  38  56 SE8       30.22R
PRICE          SUNNY     48  33  56 SE3       30.24S
ST GEORGE      SUNNY     55  41  58 CALM      30.19R

$$

REGIONAL REPORTS     COLORADO/ARIZONA

CITY           SKY/WX    TMP DP  RH WIND       PRES   REMARKS
CRAIG, CO      SUNNY     40  25  55 CALM      30.29S
GRAND JUNCTION SUNNY     51  39  63 SE6       30.23S
RIFLE          CLOUDY    47  37  68 CALM      30.26R
MONTROSE       CLOUDY    44  39  82 CALM      30.28R
CORTEZ         SUNNY     45  34  65 S6        30.27S
PAGE, AZ       CLOUDY    51  40  65 N3        30.21R
GRAND CANYON   SUNNY     46  37  71 NE10      30.23R
KINGMAN        SUNNY     59  42  53 N5        30.12R
FLAGSTAFF      CLOUDY    36  36 100 E6        30.23R WCI  31

$$

REGIONAL REPORTS    NEVADA/IDAHO/WYOMING

CITY           SKY/WX    TMP DP  RH WIND       PRES   REMARKS
LAS VEGAS, NV  MOSUNNY   66  41  40 N5        30.07R
ELY            CLOUDY    41  33  73 S7        30.23S
ELKO           SUNNY     44  31  60 NE7       30.21R
POCATELLO, ID  SUNNY     50  27  40 N3        30.25R
BURLEY         SUNNY     47  36  65 CALM      30.20R
EVANSTON, WY   SUNNY     38  22  52 E12       30.30R WCI  30
ROCK SPRINGS   SUNNY     34  23  64 VRB3      30.30S
KEMMERER       SUNNY     36  25  64 E6        30.31S WCI  31

$$



USA.gov is the U.S. government's official web portal to all federal, state and local government web resources and services.